Weather History for KEEN - July, 2013

Change the Weather History Date:

Saturday, July 20, 2013

  Actual Average Record
Temperature  
Mean Temperature 76 °F -  
Max Temperature 87 °F 82 °F 95 °F (1957)
Min Temperature 66 °F 59 °F 38 °F (1929)
Cooling Degree Days 12    
Growing Degree Days 26 (Base 50)    
Moisture  
Dew Point 62 °F    
Average Humidity 63    
Maximum Humidity 83    
Minimum Humidity 46    
Precipitation  
Precipitation 0.00 in - - ()
Sea Level Pressure  
Sea Level Pressure 29.74 in    
Wind  
Wind Speed 3 mph (WSW)    
Max Wind Speed 12 mph    
Max Gust Speed 20 mph    
Visibility 10 miles    
Events      
Averages and records for this station are not official NWS values.
T = Trace of Precipitation, MM = Missing Value Source: NWS Daily Summary

Daily Weather History Graph

Daily Weather History Graph

Search for Another Location

Airport or City:

Trip Planner

Search our weather history database for the weather conditions in past years. The results will help you decide how hot, cold, wet, or windy it might be!

Date:

Astronomy

Jul. 20, 2013 Rise Set
Actual Time 5:28 AM EDT 8:21 PM EDT
Civil Twilight 4:55 AM EDT 8:55 PM EDT
Nautical Twilight 4:12 AM EDT 9:37 PM EDT
Astronomical Twilight 3:22 AM EDT 10:26 PM EDT
Moon 6:22 PM EDT (7/20) 3:05 AM EDT (7/20)
Length of Visible Light 16h 00m
Length of Day
14h 53m
Waxing Gibbous, 93% of the Moon is Illuminated
Jul 20
Waxing Gibbous
Jul 22
Full
Jul 29
Last Quarter
Aug 6
New
Aug 14
First Quarter

Hourly Weather History & Observations

Time (EDT) Temp. Heat Index Dew Point Humidity Pressure Visibility Wind Dir Wind Speed Gust Speed Precip Events Conditions
12:35 AM 77.0 °F - 60.8 °F 57% 29.76 in 10.0 mi ENE 4.6 mph - N/A   Scattered Clouds
12:55 AM 75.2 °F - 60.8 °F 61% 29.76 in 10.0 mi Calm Calm - N/A   Partly Cloudy
1:15 AM 73.4 °F - 60.8 °F 65% 29.75 in 10.0 mi SSW 3.5 mph - N/A   Clear
1:35 AM 71.6 °F - 60.8 °F 69% 29.75 in 10.0 mi Calm Calm - N/A   Clear
1:55 AM 71.6 °F - 60.8 °F 69% 29.75 in 10.0 mi Calm Calm - N/A   Clear
2:15 AM 71.6 °F - 60.8 °F 69% 29.74 in 10.0 mi Calm Calm - N/A   Clear
2:35 AM 69.8 °F - 60.8 °F 73% 29.74 in 10.0 mi Calm Calm - N/A   Clear
2:55 AM 69.8 °F - 60.8 °F 73% 29.74 in 9.0 mi South 3.5 mph - N/A   Clear
3:15 AM 68.0 °F - 60.8 °F 78% 29.74 in 10.0 mi Calm Calm - N/A   Clear
3:35 AM 69.8 °F - 60.8 °F 73% 29.74 in 10.0 mi Calm Calm - N/A   Clear
3:55 AM 69.8 °F - 60.8 °F 73% 29.73 in 10.0 mi Calm Calm - N/A   Clear
4:15 AM 69.8 °F - 60.8 °F 73% 29.73 in 10.0 mi Calm Calm - N/A   Clear
4:35 AM 68.0 °F - 60.8 °F 78% 29.72 in 10.0 mi Calm Calm - N/A   Clear
4:55 AM 68.0 °F - 60.8 °F 78% 29.73 in 10.0 mi Calm Calm - N/A   Clear
5:15 AM 66.2 °F - 60.8 °F 83% 29.73 in 10.0 mi Calm Calm - N/A   Clear
5:35 AM 66.2 °F - 60.8 °F 83% 29.73 in 10.0 mi Calm Calm - N/A   Clear
5:55 AM 66.2 °F - 60.8 °F 83% 29.73 in 10.0 mi Calm Calm - N/A   Clear
6:35 AM 69.8 °F - 60.8 °F 73% 29.74 in 10.0 mi Calm Calm - N/A   Clear
6:55 AM 69.8 °F - 62.6 °F 78% 29.74 in 10.0 mi Calm Calm - N/A   Clear
7:15 AM 71.6 °F - 62.6 °F 73% 29.75 in 10.0 mi Calm Calm - N/A   Clear
7:35 AM 73.4 °F - 62.6 °F 69% 29.75 in 10.0 mi Calm Calm - N/A   Clear
7:55 AM 73.4 °F - 62.6 °F 69% 29.75 in 10.0 mi Calm Calm - N/A   Clear
8:15 AM 73.4 °F - 64.4 °F 73% 29.75 in 10.0 mi Calm Calm - N/A   Clear
8:35 AM 73.4 °F - 62.6 °F 69% 29.75 in 10.0 mi Calm Calm - N/A   Clear
8:55 AM 75.2 °F - 64.4 °F 69% 29.74 in 10.0 mi Calm Calm - N/A   Clear
9:15 AM 77.0 °F - 64.4 °F 65% 29.73 in 10.0 mi SSW 5.8 mph - N/A   Clear
9:35 AM 78.8 °F - 64.4 °F 61% 29.72 in 10.0 mi WSW 3.5 mph - N/A   Clear
9:55 AM 82.4 °F 83.9 °F 64.4 °F 54% 29.72 in 10.0 mi WSW 9.2 mph - N/A   Clear
10:15 AM 82.4 °F 83.9 °F 64.4 °F 54% 29.72 in 10.0 mi SSW 9.2 mph - N/A   Clear
10:35 AM 82.4 °F 83.9 °F 64.4 °F 54% 29.72 in 10.0 mi SW 5.8 mph - N/A   Clear
10:55 AM 84.2 °F 85.6 °F 64.4 °F 51% 29.71 in 10.0 mi WSW 8.1 mph - N/A   Clear
11:15 AM 84.2 °F 85.6 °F 64.4 °F 51% 29.72 in 10.0 mi SSW 8.1 mph - N/A   Clear
11:35 AM 84.2 °F 85.6 °F 64.4 °F 51% 29.72 in 10.0 mi SSW 8.1 mph - N/A   Clear
11:55 AM 86.0 °F 88.2 °F 66.2 °F 51% 29.71 in 10.0 mi WSW 9.2 mph - N/A   Clear
12:35 PM 87.8 °F 90.4 °F 66.2 °F 49% 29.70 in 10.0 mi WSW 11.5 mph - N/A   Mostly Cloudy
12:55 PM 87.8 °F 89.4 °F 64.4 °F 46% 29.70 in 10.0 mi West 11.5 mph - N/A   Partly Cloudy
1:15 PM 86.0 °F 87.3 °F 64.4 °F 48% 29.71 in 10.0 mi West 6.9 mph - N/A   Partly Cloudy
1:35 PM 84.2 °F 85.6 °F 64.4 °F 51% 29.70 in 10.0 mi West 5.8 mph - N/A   Partly Cloudy
1:55 PM 84.2 °F 85.6 °F 64.4 °F 51% 29.69 in 10.0 mi West 10.4 mph - N/A   Clear
2:15 PM 86.0 °F 87.3 °F 64.4 °F 48% 29.69 in 10.0 mi WNW 6.9 mph - N/A   Clear
2:35 PM 86.0 °F 87.3 °F 64.4 °F 48% 29.69 in 10.0 mi WNW 8.1 mph - N/A   Clear
2:55 PM 87.8 °F 89.4 °F 64.4 °F 46% 29.69 in 10.0 mi West 8.1 mph - N/A   Partly Cloudy
3:15 PM 87.8 °F 89.4 °F 64.4 °F 46% 29.69 in 10.0 mi WSW 10.4 mph 19.6 mph N/A   Scattered Clouds
3:35 PM 87.8 °F 89.4 °F 64.4 °F 46% 29.69 in 10.0 mi WSW 9.2 mph - N/A   Mostly Cloudy
3:55 PM 87.8 °F 89.4 °F 64.4 °F 46% 29.68 in 10.0 mi WSW 6.9 mph - N/A   Partly Cloudy
4:15 PM 86.0 °F 87.3 °F 64.4 °F 48% 29.68 in 10.0 mi West 6.9 mph - N/A   Mostly Cloudy
4:35 PM 87.8 °F 89.4 °F 64.4 °F 46% 29.69 in 10.0 mi WNW 10.4 mph 17.3 mph N/A   Overcast
4:55 PM 86.0 °F 87.3 °F 64.4 °F 48% 29.69 in 10.0 mi West 5.8 mph - N/A   Mostly Cloudy
5:15 PM 84.2 °F 85.6 °F 64.4 °F 51% 29.70 in 10.0 mi West 5.8 mph - N/A   Mostly Cloudy
5:35 PM 84.2 °F 85.6 °F 64.4 °F 51% 29.71 in 10.0 mi West 4.6 mph - N/A   Scattered Clouds
5:55 PM 84.2 °F 85.6 °F 64.4 °F 51% 29.72 in 10.0 mi WNW 4.6 mph - N/A   Mostly Cloudy
6:15 PM 82.4 °F 83.9 °F 64.4 °F 54% 29.73 in 10.0 mi NW 9.2 mph - N/A   Partly Cloudy
6:35 PM 82.4 °F 83.9 °F 64.4 °F 54% 29.74 in 10.0 mi NW 8.1 mph - N/A   Partly Cloudy
6:55 PM 80.6 °F 81.8 °F 62.6 °F 54% 29.74 in 10.0 mi WNW 8.1 mph 17.3 mph N/A   Mostly Cloudy
7:15 PM 75.2 °F - 62.6 °F 65% 29.75 in 8.0 mi SW 6.9 mph - N/A   Overcast
7:35 PM 75.2 °F - 62.6 °F 65% 29.75 in 10.0 mi SSW 8.1 mph - N/A   Overcast
7:55 PM 75.2 °F - 62.6 °F 65% 29.75 in 10.0 mi SW 4.6 mph - N/A   Overcast
8:15 PM 73.4 °F - 60.8 °F 65% 29.76 in 10.0 mi WSW 5.8 mph - N/A   Partly Cloudy
8:35 PM 73.4 °F - 60.8 °F 65% 29.76 in 10.0 mi SW 4.6 mph - N/A   Clear
8:55 PM 73.4 °F - 60.8 °F 65% 29.76 in 10.0 mi SSW 4.6 mph - N/A   Clear
9:15 PM 71.6 °F - 60.8 °F 69% 29.78 in 10.0 mi Calm Calm - N/A   Clear
9:35 PM 69.8 °F - 60.8 °F 73% 29.79 in 10.0 mi Calm Calm - N/A   Clear
10:15 PM 68.0 °F - 59.0 °F 73% 29.80 in 10.0 mi Calm Calm - N/A   Clear
10:35 PM 66.2 °F - 57.2 °F 73% 29.81 in 10.0 mi Calm Calm - N/A   Clear
10:55 PM 66.2 °F - 57.2 °F 73% 29.81 in 10.0 mi Calm Calm - N/A   Clear
11:15 PM 66.2 °F - 57.2 °F 73% 29.82 in 10.0 mi Calm Calm - N/A   Clear
11:35 PM 66.2 °F - 57.2 °F 73% 29.83 in 10.0 mi South 4.6 mph - N/A   Clear
11:55 PM 66.2 °F - 59.0 °F 78% 29.84 in 10.0 mi SSE 3.5 mph - N/A   Clear